Presure
147 177 145 146 157 181 136 153 147 121 157 155 91 179 192 191 201 184 182 190 185 244 222 233 262 270 266 260 253 248 244 242 225 216 220 216 235 230 232 225 219 231 223 243 221
192 156 132 146 118 119 155 174 168 109 176 177 182 183 191 193 177 186 235 224 231 253 243 255 247 253 254 249 252 247 246 240 246 244 240 235 231 234 238 231 224 212 198 229 236
119 125 160 109 130 177 172 172 187 183 149 190 174 167 191 183 177 192 193 234 243 246 244 227 241 248 251 248 243 236 233 281 255 265 264 264 241 236 236 239 234 234 227 238 227
105 149 180 186 175 170 174 181 186 179 181 176 178 180 176 178 181 178 184 195 240 239 248 246 243 239 238 235 268 263 272 252 264 264 263 251 246 261 246 236 240 243 240 232 239
179 169 171 184 168 201 189 150 139 179 175 179 179 169 173 189 177 219 240 236 246 216 242 226 234 234 227 247 257 250 248 255 260 258 264 262 256 246 248 259 250 238 244 238 239
171 160 164 179 177 172 138 148 177 173 173 168 173 197 192 177 194 214 236 234 243 239 242 237 224 229 222 247 253 251 246 276 267 269 271 273 268 264 257 257 255 262 247 249 251
168 183 164 177 186 179 174 169 181 179 178 171 170 184 208 209 155 242 183 227 226 221 225 234 235 231 238 244 251 269 240 271 277 277 251 269 279 264 274 270 262 272 257 262 257
182 185 180 176 174 172 172 173 171 189 182 199 173 168 184 176 216 225 233 225 197 233 227 223 223 227 241 249 244 284 283 266 259 319 319 326 267 260 262 263 259 267 271 246 250
164 174 173 188 166 175 163 163 178 163 174 175 168 166 175 200 215 226 222 230 234 226 225 231 223 233 239 244 244 273 266 381 365 354 349 343 341 345 348 331 286 264 265 261 247
174 173 176 166 165 166 162 171 167 158 208 170 203 192 175 176 176 197 188 234 222 235 227 227 232 234 230 239 246 294 358 348 334 325 326 329 327 323 329 332 339 348 339 265 253
181 166 164 168 165 161 170 167 178 182 164 216 176 168 209 213 220 222 228 215 215 218 221 211 230 232 240 239 278 300 362 331 328 319 311 312 306 308 313 319 324 329 339 348 275
168 167 165 168 165 166 169 171 175 169 168 151 172 195 174 160 218 199 222 219 216 225 220 234 230 233 231 241 271 367 339 325 314 306 292 288 289 292 294 297 302 306 318 331 349
168 168 168 167 160 159 170 177 167 196 176 162 202 198 156 223 187 219 223 204 224 217 222 235 229 231 240 240 274 359 327 313 297 384 364 353 348 348 353 364 371 328 299 308 318
169 178 162 164 168 167 184 202 199 182 166 197 159 181 170 213 199 203 215 216 204 220 217 237 232 231 239 238 276 356 321 298 377 352 340 337 343 337 344 340 340 337 344 352 372
166 166 169 166 170 162 163 155 159 166 176 168 216 207 224 205 218 207 211 222 221 227 218 228 234 234 234 239 271 348 319 292 361 334 325 319 315 301 315 316 322 324 341 345 345
172 166 170 185 164 161 180 159 172 159 153 218 169 191 177 222 206 215 202 222 221 227 227 225 228 230 229 240 259 344 314 287 352 339 326 319 315 310 264 307 310 312 310 333 347
192 173 201 203 188 199 193 171 169 157 186 196 215 208 215 193 210 206 209 216 221 228 224 225 221 226 229 234 283 345 307 288 346 335 335 316 300 317 300 309 297 304 308 327 345
197 190 179 163 185 172 170 166 175 198 207 218 190 192 218 216 211 212 214 210 221 225 224 219 221 229 240 236 254 348 309 285 341 337 316 308 292 289 308 289 304 300 290 315 328
168 194 179 190 206 199 193 199 205 216 191 213 207 207 218 206 210 213 210 205 222 216 222 214 220 229 242 234 252 335 314 284 351 321 330 308 309 281 288 287 292 291 295 299 313
180 168 159 146 193 194 200 217 215 189 173 210 189 218 203 199 196 206 219 205 217 219 224 211 224 224 240 233 265 318 320 287 321 328 321 312 294 306 288 277 286 261 280 287 298
193 196 168 204 179 190 190 187 200 210 218 216 207 193 209 202 204 206 220 209 213 221 226 225 227 223 223 231 262 281 316 295 286 345 324 322 291 272 294 283 270 278 267 278 286
197 194 205 156 201 196 191 210 219 219 217 206 207 207 203 224 205 205 214 215 218 222 223 235 222 218 225 231 271 273 321 302 264 325 340 311 299 288 285 281 247 265 257 275 282
183 201 192 196 206 195 209 220 216 220 198 219 208 200 208 209 195 208 208 211 219 226 209 238 220 221 224 228 262 270 333 305 274 329 334 328 325 286 280 269 277 264 267 249 290
195 189 197 207 209 195 214 222 205 208 183 219 215 194 208 212 212 207 212 219 217 224 231 238 223 228 222 225 237 266 288 306 286 336 324 322 321 295 263 269 285 263 264 249 273
192 192 201 156 197 209 197 193 208 212 207 209 215 216 213 219 216 216 218 225 233 229 215 239 231 231 225 233 238 263 278 320 296 268 363 332 319 304 273 268 273 271 255 265 265
200 187 206 179 218 199 160 206 217 214 220 220 214 221 220 233 233 242 241 231 229 237 232 238 231 234 226 235 246 260 268 297 301 262 368 346 317 321 293 263 276 266 258 251 264
223 215 197 212 204 214 217 214 226 228 232 247 266 257 248 261 244 251 238 219 237 231 240 240 232 232 229 233 257 258 270 272 308 285 283 364 333 306 296 286 275 262 257 245 259
Wind_Speed
52 44 51 51 50 44 58 58 57 44 63 50 27 62 58 59 61 62 62 62 61 47 54 49 45 45 46 49 53 55 55 56 56 59 61 64 64 66 67 72 76 75 78 69 81
40 51 52 49 53 54 53 52 57 41 54 59 59 62 63 63 65 63 59 59 57 50 49 46 46 48 50 52 52 52 55 56 58 62 66 69 71 69 71 74 79 80 74 77 75
55 58 52 42 57 51 53 54 51 54 51 58 63 66 67 67 67 69 70 62 57 55 54 55 51 51 51 54 56 57 58 46 58 58 64 69 73 75 75 77 80 81 83 80 81
31 58 50 49 52 55 54 55 52 56 60 62 64 66 69 70 70 70 72 75 60 58 54 55 54 55 55 56 51 52 51 57 53 56 61 68 73 75 81 82 84 82 84 86 84
51 54 53 51 57 52 52 41 43 58 62 66 68 72 74 77 75 75 62 63 60 66 56 59 58 61 61 61 58 56 56 59 62 64 66 67 72 79 82 87 89 86 85 89 89
55 60 59 56 57 59 41 46 60 63 66 70 73 74 83 80 83 62 64 63 59 60 58 59 65 64 67 66 63 59 61 64 64 68 71 72 74 79 87 91 90 90 90 89 91
56 57 58 58 56 57 60 63 65 66 71 74 75 81 73 75 63 66 85 65 66 67 65 62 61 65 66 71 68 69 63 69 71 71 62 66 77 79 86 86 89 89 90 94 93
57 57 55 57 59 62 64 67 69 69 73 75 79 80 87 85 78 71 66 64 69 62 65 69 69 70 72 74 72 74 73 65 69 79 77 80 80 88 85 84 85 85 85 91 91
61 59 59 56 63 63 68 71 70 73 77 81 82 83 87 84 79 72 68 66 64 68 66 68 72 72 74 76 78 79 79 62 56 57 48 51 53 61 66 79 96 92 92 95 97
60 60 60 64 67 68 69 71 74 76 74 82 73 86 92 93 90 78 82 63 65 63 67 69 71 74 75 79 81 79 65 54 48 45 45 46 48 50 55 58 60 65 77 98 99
61 63 66 66 68 70 72 74 76 80 80 81 86 89 80 76 73 71 65 65 68 69 70 76 73 76 81 83 89 87 57 48 46 40 39 42 43 46 49 50 54 58 63 68 99
65 64 69 70 72 72 74 76 76 81 84 75 84 79 88 75 71 70 66 65 69 72 76 72 73 77 78 87 93 68 55 48 45 42 36 40 43 45 46 48 50 54 58 63 68
68 68 70 72 72 73 78 79 81 81 88 84 80 85 76 71 69 70 68 74 69 72 76 75 74 78 82 85 95 66 54 48 43 11 7 13 17 19 20 18 10 36 56 61 65
69 70 75 77 75 76 75 66 78 77 88 84 77 92 96 68 67 77 66 68 77 73 75 78 76 79 80 81 94 60 54 48 12 12 15 7 2 6 6 11 13 18 25 28 28
73 76 77 75 77 77 80 78 83 89 91 97 80 72 68 67 66 64 66 71 71 75 76 78 81 83 81 85 91 58 51 49 12 15 11 8 11 20 14 14 12 11 16 22 28
77 69 75 74 79 81 78 85 87 80 78 81 99 73 68 67 61 66 69 71 72 76 78 77 80 81 81 86 91 58 53 47 15 10 11 12 12 13 17 11 3 10 21 20 19
67 76 70 69 75 76 74 92 84 88 79 86 74 72 69 75 63 64 69 72 79 82 78 75 75 78 81 85 87 57 53 48 18 9 8 17 16 14 13 6 11 9 11 15 24
73 78 83 83 70 84 80 92 84 87 89 77 74 80 68 66 65 66 71 67 77 80 78 76 77 82 84 83 85 52 49 46 22 8 16 17 17 17 12 11 3 5 14 12 21
80 80 75 81 91 87 75 93 102 95 82 79 75 72 66 65 68 70 70 69 82 72 81 73 77 82 83 81 86 60 47 45 17 21 18 19 17 12 18 11 7 2 8 12 20
81 87 83 65 80 91 90 108 105 87 76 79 86 67 66 65 73 70 77 69 80 80 91 68 79 81 83 81 83 67 47 43 28 20 23 21 19 14 12 13 8 13 10 10 18
94 89 85 99 80 95 89 80 95 95 83 78 69 78 73 70 70 73 83 75 78 87 92 81 80 77 77 79 80 74 53 42 34 19 21 25 14 6 14 11 8 12 4 7 13
96 90 105 83 108 99 96 118 95 90 83 80 73 79 73 81 75 78 89 87 91 92 85 84 77 73 78 78 73 68 51 43 37 24 17 17 13 12 15 15 6 12 13 10 7
87 110 89 96 120 104 122 105 104 90 80 92 80 75 85 88 68 89 88 88 93 93 64 82 73 71 73 74 74 65 48 42 38 26 17 16 20 11 21 13 15 15 12 12 10
103 87 111 127 123 99 125 106 85 102 86 95 95 70 93 97 96 88 94 97 87 90 83 78 72 70 68 69 72 64 61 45 35 29 19 13 15 17 9 17 23 17 19 10 20
107 107 129 79 113 118 97 85 103 103 102 105 104 99 95 96 95 96 98 96 90 82 70 74 72 69 66 68 68 59 62 43 37 32 16 14 12 21 23 18 28 28 23 22 26
130 98 131 72 118 102 76 111 114 114 111 106 99 101 98 99 97 89 82 77 77 76 74 70 67 69 63 64 65 54 55 48 39 30 19 16 13 18 28 20 31 28 30 20 29
121 126 115 117 121 119 116 111 114 112 111 103 87 92 89 82 83 81 75 70 70 68 70 67 63 64 62 59 61 51 56 53 38 31 27 16 17 20 21 38 36 28 34 26 33
Wind_Direction
295 302 297 299 301 306 295 300 300 286 305 299 285 304 307 306 312 303 303 307 306 310 303 302 298 292 288 282 278 275 271 267 263 261 260 257 253 247 241 237 239 237 235 234 234
303 298 292 297 293 295 300 302 304 292 304 302 304 306 310 311 303 307 323 319 316 315 311 311 304 301 294 290 284 279 275 270 266 261 258 256 254 250 247 241 236 238 236 229 234
287 289 297 296 295 302 304 304 310 307 302 311 303 305 313 305 306 312 313 322 322 319 317 312 310 305 298 294 289 285 281 278 268 262 257 256 252 251 248 245 241 234 236 234 227
296 293 302 308 303 303 304 308 312 306 307 303 305 307 304 306 307 309 313 315 323 321 317 312 309 304 301 297 307 301 292 280 274 265 258 253 254 251 247 244 244 240 232 234 231
303 299 302 308 302 319 314 311 304 309 305 309 308 304 306 312 308 321 326 325 321 316 317 313 309 308 306 315 310 302 297 292 283 275 267 255 250 250 249 245 243 239 238 234 231
301 297 300 310 308 306 308 308 308 305 306 305 308 317 314 310 316 325 327 326 322 319 318 315 312 311 308 318 311 304 298 289 284 277 271 266 260 251 246 245 243 241 239 238 235
299 304 301 307 313 310 308 305 311 310 311 308 308 313 324 326 317 331 316 324 322 320 318 316 316 316 318 316 314 310 301 293 282 277 274 273 263 258 253 249 246 245 240 238 238
302 303 304 304 305 306 306 308 308 314 314 315 309 308 314 313 327 328 324 321 319 316 315 315 315 314 322 321 318 313 308 300 288 283 275 266 256 254 251 247 243 243 242 237 238
295 298 301 305 302 305 303 305 310 310 312 310 308 307 312 321 327 327 324 322 322 319 317 320 317 323 323 322 321 319 320 299 289 286 280 272 263 259 257 254 248 240 236 234 232
298 300 304 300 301 301 304 308 308 306 321 307 321 312 309 310 314 320 319 322 319 319 318 323 327 325 323 323 324 317 315 309 299 290 286 275 266 260 256 254 253 250 245 232 232
297 297 297 298 297 301 305 307 312 312 304 336 309 309 329 327 326 324 322 319 318 319 320 318 329 327 329 327 328 326 318 315 302 296 284 276 269 263 257 254 252 249 247 244 231
292 294 293 296 297 302 305 307 309 306 305 309 311 320 310 315 324 321 321 322 321 329 324 332 328 329 330 332 332 328 327 318 308 299 289 278 273 267 262 256 251 248 246 243 240
293 294 294 295 299 304 306 304 305 319 304 306 324 317 312 326 321 325 324 318 328 324 328 332 328 330 335 335 336 331 331 323 317 302 286 267 269 266 263 265 274 253 245 244 242
292 295 291 293 299 304 303 322 322 303 305 327 311 310 308 324 323 320 322 325 322 326 323 334 332 333 337 337 337 335 333 329 315 293 293 308 13 245 165 178 195 240 252 251 251
287 287 291 295 297 301 303 300 301 306 310 303 325 327 323 321 321 318 321 328 328 333 326 333 336 336 338 340 340 336 335 332 314 308 302 256 237 264 236 243 234 264 279 265 255
289 297 295 295 297 297 307 300 304 303 303 326 304 316 322 321 320 325 317 333 332 334 334 331 336 337 337 340 341 340 338 335 314 291 269 210 206 212 238 226 262 275 273 311 283
302 295 304 307 295 311 302 294 303 301 311 316 324 323 321 316 322 320 324 331 336 337 332 331 333 337 338 339 340 341 339 337 320 284 227 216 262 208 278 161 237 270 337 358 6
307 301 300 296 303 295 305 298 297 314 324 326 322 316 318 324 323 325 326 326 336 336 332 330 334 337 339 339 342 344 340 338 315 269 253 252 293 283 183 269 97 122 268 28 16
288 309 295 311 317 321 310 322 328 326 305 324 320 318 319 320 325 325 325 322 334 331 333 329 333 336 339 338 341 346 343 338 305 301 243 270 256 293 269 228 152 130 63 41 40
305 283 290 298 311 312 321 322 325 313 314 320 306 312 318 318 318 324 328 321 330 329 332 327 332 335 337 338 339 349 343 342 327 295 261 258 297 246 231 267 148 290 69 40 37
305 309 292 314 306 311 316 315 318 321 315 317 317 312 318 317 318 321 327 323 326 327 329 329 331 333 334 336 339 347 342 342 333 289 275 258 281 294 212 200 238 113 197 56 37
309 305 314 296 316 319 318 319 315 314 315 315 318 320 317 322 317 319 322 322 324 324 326 327 328 331 332 334 338 343 341 340 337 332 275 283 259 240 212 203 275 150 262 78 39
294 312 312 317 315 317 316 312 314 316 315 319 317 309 318 319 306 317 317 318 319 320 317 322 324 329 330 331 336 342 345 341 338 340 295 274 264 217 214 215 171 170 140 234 79
310 305 315 313 312 316 313 315 314 319 306 315 315 297 314 313 312 313 313 312 315 317 317 318 321 327 327 329 334 340 345 340 339 341 320 282 256 208 223 214 173 191 157 208 127
311 313 311 305 311 310 310 312 312 311 311 309 307 307 306 307 307 307 307 308 311 312 314 315 318 323 324 326 333 340 345 343 337 338 279 273 245 213 210 216 203 169 183 153 142
307 310 308 293 307 311 292 312 308 306 304 303 305 304 304 301 301 305 305 306 306 309 311 312 315 319 321 323 330 337 342 343 336 332 321 263 242 222 210 222 199 190 184 195 155
299 302 309 306 309 304 301 303 300 298 297 298 301 299 301 300 301 300 301 302 304 305 309 308 313 315 317 321 329 334 343 345 335 330 341 268 249 225 219 205 203 216 196 194 173